^^
Saratoga-Weather Station Historical Data
Daily Summary for August 23, 2021 Units:  Metric    English   Both
Daily Weekly Monthly Yearly Custom
  High: Low: Average:
Temperature: 17.4 °C 7.9 °C 11.5 °C
Dew Point: 8.7 °C 6 °C 7 °C
Humidity: 91% 49% 76%
Wind Speed: 17.7km/h 0km/h 4.6km/h
Wind Gust: 30.6km/h - -
Wind- - West
Pressure: 1016.6 hPa 1011.2 hPa -
Precipitation: 0.0 mm    
Historical Graphs
 
 
Tabular Data for August 23, 2021
Time Temperature Dew Point Pressure Wind Wind Speed Wind Gust Humidity Rainfall Rate (Hourly) solar
00:03 9.7 °C 7 °C 1011.2 hPa Calm   6.4 km/h 83% 0.2 mm 0 W/m2
00:08 9.7 °C 7 °C 1011.5 hPa WNW 13 km/h 16.1 km/h 83% 0.2 mm 0 W/m2
00:13 9.7 °C 7 °C 1011.5 hPa NW 3.2 km/h 9.7 km/h 83% 0.2 mm 0 W/m2
00:18 9.6 °C 6.9 °C 1011.5 hPa WNW 6.4 km/h 12.9 km/h 83% 0.2 mm 0 W/m2
00:23 9.5 °C 6.9 °C 1011.5 hPa WNW 13 km/h 16.1 km/h 84% 0.2 mm 0 W/m2
00:28 9.4 °C 6.8 °C 1011.5 hPa West 4.7 km/h 9.7 km/h 84% 0.2 mm 0 W/m2
00:33 9.3 °C 6.9 °C 1011.2 hPa WNW 6.4 km/h 12.9 km/h 85% 0.0 mm 0 W/m2
00:38 9.2 °C 6.8 °C 1011.2 hPa West 3.2 km/h 6.4 km/h 85% 0.0 mm 0 W/m2
00:43 9.2 °C 6.8 °C 1011.2 hPa WSW 6.4 km/h 9.7 km/h 85% 0.0 mm 0 W/m2
00:48 9.2 °C 6.8 °C 1011.2 hPa West 3.2 km/h 9.7 km/h 85% 0.0 mm 0 W/m2
00:54 9.1 °C 6.9 °C 1011.2 hPa NW 3.2 km/h 6.4 km/h 86% 0.0 mm 0 W/m2
00:59 9 °C 6.8 °C 1011.2 hPa SW 7.9 km/h 9.7 km/h 86% 0.0 mm 0 W/m2
01:04 8.9 °C 6.7 °C 1011.2 hPa West 3.2 km/h 11.3 km/h 86% 0.0 mm 0 W/m2
01:09 8.8 °C 6.8 °C 1011.5 hPa WNW 1.4 km/h 9.7 km/h 87% 0.0 mm 0 W/m2
01:14 8.7 °C 6.7 °C 1011.5 hPa West 1.4 km/h 6.4 km/h 87% 0.0 mm 0 W/m2
01:19 8.7 °C 6.7 °C 1011.5 hPa NW 1.4 km/h 4.8 km/h 87% 0.0 mm 0 W/m2
01:24 8.7 °C 6.8 °C 1011.5 hPa NNW 3.2 km/h 11.3 km/h 88% 0.0 mm 0 W/m2
01:29 8.7 °C 6.8 °C 1011.5 hPa NW 4.7 km/h 6.4 km/h 88% 0.0 mm 0 W/m2
01:34 8.6 °C 6.7 °C 1011.5 hPa Calm   8 km/h 88% 0.0 mm 0 W/m2
01:39 8.6 °C 6.7 °C 1011.5 hPa ENE 3.2 km/h 4.8 km/h 88% 0.0 mm 0 W/m2
01:44 8.5 °C 6.8 °C 1011.9 hPa NW 4.7 km/h 8 km/h 89% 0.0 mm 0 W/m2
01:49 8.4 °C 6.7 °C 1011.5 hPa WNW 3.2 km/h 8 km/h 89% 0.0 mm 0 W/m2
01:54 8.4 °C 6.7 °C 1011.5 hPa NW 1.4 km/h 6.4 km/h 89% 0.0 mm 0 W/m2
01:59 8.5 °C 6.8 °C 1011.9 hPa SSW 1.4 km/h 4.8 km/h 89% 0.0 mm 0 W/m2
02:04 8.5 °C 6.6 °C 1011.5 hPa NW 6.4 km/h 11.3 km/h 88% 0.0 mm 0 W/m2
02:09 8.5 °C 6.6 °C 1011.5 hPa SW 1.4 km/h 4.8 km/h 88% 0.0 mm 0 W/m2
02:14 8.5 °C 6.6 °C 1011.5 hPa Calm   9.7 km/h 88% 0.0 mm 0 W/m2
02:19 8.4 °C 6.7 °C 1011.9 hPa Calm   12.9 km/h 89% 0.0 mm 0 W/m2
02:24 8.4 °C 6.5 °C 1011.5 hPa Calm   3.2 km/h 88% 0.0 mm 0 W/m2
02:29 8.4 °C 6.7 °C 1011.9 hPa WNW 1.4 km/h 12.9 km/h 89% 0.0 mm 0 W/m2
02:34 8.3 °C 6.6 °C 1011.9 hPa West 1.4 km/h 11.3 km/h 89% 0.0 mm 0 W/m2
02:39 8.3 °C 6.6 °C 1011.9 hPa West 4.7 km/h 4.8 km/h 89% 0.0 mm 0 W/m2
02:44 8.2 °C 6.5 °C 1011.9 hPa NNE 3.2 km/h 9.7 km/h 89% 0.0 mm 0 W/m2
02:49 8.1 °C 6.4 °C 1011.9 hPa NNW 1.4 km/h 6.4 km/h 89% 0.0 mm 0 W/m2
02:54 8.1 °C 6.4 °C 1011.9 hPa West 1.4 km/h 9.7 km/h 89% 0.0 mm 0 W/m2
02:59 8 °C 6.5 °C 1011.9 hPa SSW 4.7 km/h 6.4 km/h 90% 0.0 mm 0 W/m2
03:04 8 °C 6.5 °C 1011.9 hPa NW 4.7 km/h 9.7 km/h 90% 0.0 mm 0 W/m2
03:09 7.9 °C 6.4 °C 1012.2 hPa North 1.4 km/h 4.8 km/h 90% 0.0 mm 0 W/m2
03:14 7.9 °C 6.4 °C 1012.2 hPa SSW 3.2 km/h 4.8 km/h 90% 0.0 mm 0 W/m2
03:19 7.9 °C 6.4 °C 1012.2 hPa WNW 4.7 km/h 8 km/h 90% 0.0 mm 0 W/m2
03:24 7.9 °C 6.4 °C 1012.2 hPa NW 1.4 km/h 6.4 km/h 90% 0.0 mm 0 W/m2
03:29 8 °C 6.5 °C 1012.2 hPa South 4.7 km/h 6.4 km/h 90% 0.0 mm 0 W/m2
03:34 8.1 °C 6.6 °C 1012.2 hPa NNW 3.2 km/h 8 km/h 90% 0.0 mm 0 W/m2
03:39 8.1 °C 6.6 °C 1012.2 hPa NW 4.7 km/h 9.7 km/h 90% 0.0 mm 0 W/m2
03:44 8.1 °C 6.4 °C 1012.2 hPa NW 4.7 km/h 11.3 km/h 89% 0.0 mm 0 W/m2
03:49 8.1 °C 6.4 °C 1012.5 hPa WNW 3.2 km/h 12.9 km/h 89% 0.0 mm 0 W/m2
03:54 8.1 °C 6.4 °C 1012.5 hPa NNW 1.4 km/h 6.4 km/h 89% 0.0 mm 0 W/m2
03:59 8.1 °C 6.4 °C 1012.5 hPa NW 3.2 km/h 12.9 km/h 89% 0.0 mm 0 W/m2
04:04 8.1 °C 6.4 °C 1012.5 hPa NNW 3.2 km/h 3.2 km/h 89% 0.0 mm 0 W/m2
04:09 8.1 °C 6.4 °C 1012.5 hPa Calm   4.8 km/h 89% 0.0 mm 0 W/m2
04:14 8.1 °C 6.4 °C 1012.9 hPa NNW 1.4 km/h 1.6 km/h 89% 0.0 mm 0 W/m2
04:19 8 °C 6.3 °C 1012.9 hPa Calm   6.4 km/h 89% 0.0 mm 0 W/m2
04:24 8 °C 6.3 °C 1012.9 hPa SSW 3.2 km/h 8 km/h 89% 0.0 mm 0 W/m2
04:29 7.9 °C 6.2 °C 1012.9 hPa North 3.2 km/h 6.4 km/h 89% 0.0 mm 0 W/m2
04:34 7.9 °C 6.4 °C 1012.9 hPa NW 4.7 km/h 8 km/h 90% 0.0 mm 0 W/m2
04:39 7.9 °C 6.4 °C 1012.9 hPa NNW 1.4 km/h 6.4 km/h 90% 0.0 mm 0 W/m2
04:44 8 °C 6.5 °C 1012.9 hPa Calm   6.4 km/h 90% 0.0 mm 0 W/m2
04:49 8.1 °C 6.6 °C 1012.9 hPa North 4.7 km/h 6.4 km/h 90% 0.0 mm 0 W/m2
04:54 8.1 °C 6.6 °C 1012.9 hPa Calm   8 km/h 90% 0.0 mm 0 W/m2
04:59 8.1 °C 6.6 °C 1012.9 hPa Calm   6.4 km/h 90% 0.0 mm 0 W/m2
05:04 8.1 °C 6.6 °C 1012.9 hPa NNE 1.4 km/h 4.8 km/h 90% 0.0 mm 0 W/m2
05:09 8.1 °C 6.4 °C 1012.9 hPa WNW 4.7 km/h 6.4 km/h 89% 0.0 mm 0 W/m2
05:14 8.1 °C 6.6 °C 1013.2 hPa NW 3.2 km/h 8 km/h 90% 0.0 mm 0 W/m2
05:19 8.1 °C 6.6 °C 1013.2 hPa NNW 3.2 km/h 4.8 km/h 90% 0.0 mm 0 W/m2
05:24 8.1 °C 6.6 °C 1013.2 hPa Calm   8 km/h 90% 0.0 mm 0 W/m2
05:29 8.1 °C 6.6 °C 1013.5 hPa WSW 4.7 km/h 11.3 km/h 90% 0.0 mm 0 W/m2
05:34 8.1 °C 6.6 °C 1013.5 hPa Calm   4.8 km/h 90% 0.0 mm 0 W/m2
05:39 8.1 °C 6.6 °C 1013.5 hPa NNW 1.4 km/h 11.3 km/h 90% 0.0 mm 0 W/m2
05:44 8.1 °C 6.7 °C 1013.5 hPa WSW 4.7 km/h 6.4 km/h 91% 0.0 mm 0 W/m2
05:49 8.1 °C 6.7 °C 1013.5 hPa WSW 3.2 km/h 9.7 km/h 91% 0.0 mm 0 W/m2
05:54 8.1 °C 6.7 °C 1013.5 hPa West 1.4 km/h 8 km/h 91% 0.0 mm 5 W/m2
05:59 8.1 °C 6.7 °C 1013.9 hPa NW 6.4 km/h 11.3 km/h 91% 0.0 mm 5 W/m2
06:04 8.1 °C 6.7 °C 1013.9 hPa West 4.7 km/h 6.4 km/h 91% 0.0 mm 9 W/m2
06:09 8.1 °C 6.7 °C 1013.9 hPa West 4.7 km/h 6.4 km/h 91% 0.0 mm 19 W/m2
06:14 8.1 °C 6.7 °C 1013.9 hPa Calm   3.2 km/h 91% 0.0 mm 23 W/m2
06:19 8.2 °C 6.8 °C 1013.9 hPa WNW 1.4 km/h 4.8 km/h 91% 0.0 mm 33 W/m2
06:25 8.2 °C 6.8 °C 1013.9 hPa NW 3.2 km/h 4.8 km/h 91% 0.0 mm 30 W/m2
06:30 8.2 °C 6.8 °C 1013.9 hPa NNW 3.2 km/h 11.3 km/h 91% 0.0 mm 26 W/m2
06:35 8.2 °C 6.8 °C 1014.2 hPa WNW 9.7 km/h 14.5 km/h 91% 0.0 mm 26 W/m2
06:40 8.3 °C 6.9 °C 1014.2 hPa WNW 3.2 km/h 6.4 km/h 91% 0.0 mm 37 W/m2
06:45 8.3 °C 6.9 °C 1014.2 hPa WNW 9.7 km/h 14.5 km/h 91% 0.0 mm 49 W/m2
06:50 8.3 °C 6.9 °C 1014.2 hPa NW 3.2 km/h 6.4 km/h 91% 0.0 mm 44 W/m2
06:55 8.4 °C 7 °C 1014.6 hPa NW 1.4 km/h 8 km/h 91% 0.0 mm 51 W/m2
07:00 8.4 °C 7 °C 1014.6 hPa Calm   3.2 km/h 91% 0.0 mm 86 W/m2
07:05 8.5 °C 7.1 °C 1014.2 hPa Calm   4.8 km/h 91% 0.0 mm 44 W/m2
07:10 8.5 °C 7.1 °C 1014.6 hPa West 1.4 km/h 6.4 km/h 91% 0.0 mm 30 W/m2
07:15 8.5 °C 7.1 °C 1014.6 hPa NW 1.4 km/h 6.4 km/h 91% 0.0 mm 25 W/m2
07:20 8.4 °C 7 °C 1014.6 hPa Calm   3.2 km/h 91% 0.0 mm 42 W/m2
07:25 8.4 °C 7 °C 1014.6 hPa East 1.4 km/h 4.8 km/h 91% 0.0 mm 32 W/m2
07:30 8.4 °C 7 °C 1014.6 hPa NE 3.2 km/h 3.2 km/h 91% 0.0 mm 58 W/m2
07:35 8.6 °C 7.2 °C 1014.6 hPa Calm   3.2 km/h 91% 0.0 mm 84 W/m2
07:40 8.6 °C 7.2 °C 1014.6 hPa NW 1.4 km/h 3.2 km/h 91% 0.0 mm 54 W/m2
07:45 8.7 °C 7.3 °C 1014.6 hPa NW 6.4 km/h 6.4 km/h 91% 0.0 mm 42 W/m2
07:50 8.7 °C 7.3 °C 1014.9 hPa NNW 4.7 km/h 8 km/h 91% 0.0 mm 102 W/m2
07:55 8.8 °C 7.4 °C 1014.9 hPa Calm   8 km/h 91% 0.0 mm 74 W/m2
08:00 8.8 °C 7.4 °C 1014.9 hPa NW 6.4 km/h 6.4 km/h 91% 0.0 mm 62 W/m2
08:05 8.8 °C 7.4 °C 1014.9 hPa WNW 4.7 km/h 8 km/h 91% 0.0 mm 40 W/m2
08:10 8.8 °C 7.4 °C 1014.9 hPa Calm   6.4 km/h 91% 0.0 mm 56 W/m2
08:15 8.9 °C 7.5 °C 1014.9 hPa West 4.7 km/h 9.7 km/h 91% 0.0 mm 100 W/m2
08:20 8.9 °C 7.5 °C 1015.2 hPa WNW 6.4 km/h 14.5 km/h 91% 0.0 mm 102 W/m2
08:25 8.9 °C 7.3 °C 1015.2 hPa WSW 6.4 km/h 14.5 km/h 90% 0.0 mm 69 W/m2
08:30 9 °C 7.4 °C 1015.2 hPa NNW 4.7 km/h 4.8 km/h 90% 0.0 mm 104 W/m2
08:35 9.1 °C 7.5 °C 1015.2 hPa WNW 3.2 km/h 14.5 km/h 90% 0.0 mm 146 W/m2
08:40 9.2 °C 7.6 °C 1015.2 hPa WSW 3.2 km/h 8 km/h 90% 0.0 mm 114 W/m2
08:45 9.2 °C 7.6 °C 1015.2 hPa Calm   4.8 km/h 90% 0.0 mm 98 W/m2
08:50 9.3 °C 7.7 °C 1015.2 hPa NE 4.7 km/h 6.4 km/h 90% 0.0 mm 77 W/m2
08:55 9.3 °C 7.7 °C 1015.2 hPa WSW 1.4 km/h 4.8 km/h 90% 0.0 mm 105 W/m2
09:00 9.3 °C 7.6 °C 1015.2 hPa WNW 3.2 km/h 9.7 km/h 89% 0.0 mm 116 W/m2
09:05 9.4 °C 7.7 °C 1015.2 hPa WNW 3.2 km/h 8 km/h 89% 0.0 mm 114 W/m2
09:10 9.4 °C 7.7 °C 1015.6 hPa NNW 4.7 km/h 6.4 km/h 89% 0.0 mm 151 W/m2
09:15 9.6 °C 7.9 °C 1015.2 hPa West 4.7 km/h 8 km/h 89% 0.0 mm 171 W/m2
09:20 9.6 °C 7.7 °C 1015.6 hPa NW 6.4 km/h 12.9 km/h 88% 0.0 mm 186 W/m2
09:25 9.7 °C 7.8 °C 1015.6 hPa SW 1.4 km/h 9.7 km/h 88% 0.0 mm 128 W/m2
09:30 9.8 °C 7.9 °C 1015.6 hPa NW 6.4 km/h 6.4 km/h 88% 0.0 mm 125 W/m2
09:35 9.7 °C 7.6 °C 1015.6 hPa West 3.2 km/h 11.3 km/h 87% 0.0 mm 183 W/m2
09:40 9.7 °C 7.6 °C 1015.6 hPa NW 3.2 km/h 12.9 km/h 87% 0.0 mm 162 W/m2
09:45 9.8 °C 7.9 °C 1015.6 hPa NW 4.7 km/h 9.7 km/h 88% 0.0 mm 218 W/m2
09:50 9.8 °C 7.9 °C 1015.6 hPa SSW 3.2 km/h 12.9 km/h 88% 0.0 mm 185 W/m2
09:55 9.7 °C 7.8 °C 1015.6 hPa WNW 9.7 km/h 9.7 km/h 88% 0.0 mm 287 W/m2
10:00 9.8 °C 7.9 °C 1015.6 hPa ENE 1.4 km/h 6.4 km/h 88% 0.0 mm 285 W/m2
10:05 9.9 °C 8 °C 1015.9 hPa NNW 1.4 km/h 4.8 km/h 88% 0.0 mm 195 W/m2
10:10 10.2 °C 8.1 °C 1015.9 hPa SSE 3.2 km/h 8 km/h 87% 0.0 mm 417 W/m2
10:15 10.3 °C 8.2 °C 1015.9 hPa West 9.7 km/h 14.5 km/h 87% 0.0 mm 417 W/m2
10:20 10.6 °C 8.5 °C 1015.9 hPa WNW 4.7 km/h 9.7 km/h 87% 0.0 mm 798 W/m2
10:25 11.1 °C 8.7 °C 1015.9 hPa West 11.1 km/h 11.3 km/h 85% 0.0 mm 387 W/m2
10:30 11.2 °C 8.4 °C 1015.9 hPa NW 4.7 km/h 8 km/h 83% 0.0 mm 362 W/m2
10:35 11.2 °C 8.4 °C 1015.9 hPa SW 9.7 km/h 9.7 km/h 83% 0.0 mm 329 W/m2
10:40 11.3 °C 8.3 °C 1015.9 hPa WNW 11.1 km/h 11.3 km/h 82% 0.0 mm 271 W/m2
10:45 11.3 °C 8.3 °C 1015.9 hPa Calm   8 km/h 82% 0.0 mm 200 W/m2
10:50 11.3 °C 8.3 °C 1016.3 hPa NNW 3.2 km/h 9.7 km/h 82% 0.0 mm 176 W/m2
10:55 11.3 °C 8.5 °C 1016.3 hPa WNW 1.4 km/h 3.2 km/h 83% 0.0 mm 251 W/m2
11:00 11.4 °C 8.4 °C 1016.3 hPa NNW 4.7 km/h 12.9 km/h 82% 0.0 mm 348 W/m2
11:05 11.6 °C 8.5 °C 1016.3 hPa NW 1.4 km/h 12.9 km/h 81% 0.0 mm 348 W/m2
11:10 11.7 °C 8.2 °C 1016.3 hPa NNW 3.2 km/h 14.5 km/h 79% 0.0 mm 383 W/m2
11:16 11.8 °C 8.5 °C 1016.3 hPa North 1.4 km/h 8 km/h 80% 0.0 mm 153 W/m2
11:21 11.7 °C 8.2 °C 1016.3 hPa WNW 3.2 km/h 8 km/h 79% 0.0 mm 123 W/m2
11:26 11.6 °C 8.1 °C 1016.3 hPa West 3.2 km/h 9.7 km/h 79% 0.0 mm 155 W/m2
11:31 11.5 °C 8 °C 1016.3 hPa Calm   6.4 km/h 79% 0.0 mm 221 W/m2
11:36 11.7 °C 8.2 °C 1016.3 hPa NW 4.7 km/h 11.3 km/h 79% 0.0 mm 870 W/m2
11:41 12.2 °C 8.3 °C 1016.3 hPa North 3.2 km/h 16.1 km/h 77% 0.0 mm 1055 W/m2
11:46 12.2 °C 7.9 °C 1016.3 hPa NW 6.4 km/h 16.1 km/h 75% 0.0 mm 257 W/m2
11:51 12.5 °C 8.2 °C 1016.3 hPa WNW 13 km/h 12.9 km/h 75% 0.0 mm 1005 W/m2
11:56 12.7 °C 7.6 °C 1016.6 hPa West 11.1 km/h 24.1 km/h 71% 0.0 mm 914 W/m2
12:01 12.9 °C 7.6 °C 1016.3 hPa WSW 7.9 km/h 14.5 km/h 70% 0.0 mm 921 W/m2
12:06 13.1 °C 7.5 °C 1016.6 hPa West 13 km/h 20.9 km/h 69% 0.0 mm 933 W/m2
12:11 12.9 °C 7.3 °C 1016.3 hPa NW 1.4 km/h 8 km/h 69% 0.0 mm 255 W/m2
12:16 13.1 °C 7.3 °C 1016.3 hPa WNW 4.7 km/h 17.7 km/h 68% 0.0 mm 330 W/m2
12:21 13.1 °C 7.3 °C 1016.6 hPa WNW 6.4 km/h 11.3 km/h 68% 0.0 mm 316 W/m2
12:26 13.2 °C 7.6 °C 1016.6 hPa NW 6.4 km/h 8 km/h 69% 0.0 mm 373 W/m2
12:31 13.2 °C 7.4 °C 1016.6 hPa WSW 3.2 km/h 9.7 km/h 68% 0.0 mm 334 W/m2
12:36 13.3 °C 7.3 °C 1016.6 hPa WSW 3.2 km/h 8 km/h 67% 0.0 mm 533 W/m2
12:41 13.7 °C 7.5 °C 1016.6 hPa WNW 3.2 km/h 12.9 km/h 66% 0.0 mm 1199 W/m2
12:46 13.8 °C 7.6 °C 1016.6 hPa North 7.9 km/h 12.9 km/h 66% 0.0 mm 350 W/m2
12:51 13.7 °C 7.5 °C 1016.6 hPa WNW 3.2 km/h 16.1 km/h 66% 0.0 mm 237 W/m2
12:56 13.6 °C 7.4 °C 1016.6 hPa WNW 7.9 km/h 16.1 km/h 66% 0.0 mm 258 W/m2
13:01 13.4 °C 7.6 °C 1016.6 hPa WSW 11.1 km/h 11.3 km/h 68% 0.0 mm 283 W/m2
13:06 13.4 °C 7.4 °C 1016.6 hPa West 9.7 km/h 9.7 km/h 67% 0.0 mm 385 W/m2
13:11 13.6 °C 7.6 °C 1016.6 hPa NW 6.4 km/h 11.3 km/h 67% 0.0 mm 522 W/m2
13:16 13.6 °C 7.6 °C 1016.3 hPa ENE 1.4 km/h 4.8 km/h 67% 0.0 mm 410 W/m2
13:21 13.7 °C 7.7 °C 1016.3 hPa West 1.4 km/h 9.7 km/h 67% 0.0 mm 1253 W/m2
13:26 14.1 °C 8.1 °C 1016.3 hPa SW 14.3 km/h 20.9 km/h 67% 0.0 mm 1111 W/m2
13:31 14.4 °C 7.7 °C 1016.3 hPa West 6.4 km/h 19.3 km/h 64% 0.0 mm 1137 W/m2
13:36 14.6 °C 7.4 °C 1016.3 hPa NW 6.4 km/h 17.7 km/h 62% 0.0 mm 432 W/m2
13:41 14.7 °C 7.5 °C 1016.3 hPa NNW 16.3 km/h 30.6 km/h 62% 0.0 mm 336 W/m2
13:46 14.4 °C 6.5 °C 1016.3 hPa West 9.7 km/h 27.4 km/h 59% 0.0 mm 329 W/m2
13:51 14.2 °C 6.8 °C 1016.3 hPa SW 6.4 km/h 14.5 km/h 61% 0.0 mm 387 W/m2
13:56 14.3 °C 7.1 °C 1016.3 hPa NNW 4.7 km/h 27.4 km/h 62% 0.0 mm 986 W/m2
14:01 14.7 °C 7.3 °C 1015.9 hPa West 13 km/h 16.1 km/h 61% 0.0 mm 984 W/m2
14:06 15.1 °C 7.1 °C 1016.3 hPa NNW 6.4 km/h 11.3 km/h 59% 0.0 mm 1018 W/m2
14:11 15.2 °C 6.5 °C 1016.3 hPa WNW 6.4 km/h 14.5 km/h 56% 0.0 mm 1062 W/m2
14:16 15.3 °C 7.1 °C 1015.9 hPa West 9.7 km/h 14.5 km/h 58% 0.0 mm 313 W/m2
14:21 15.1 °C 6.9 °C 1016.3 hPa WNW 14.3 km/h 24.1 km/h 58% 0.0 mm 218 W/m2
14:26 14.7 °C 6.8 °C 1016.3 hPa WNW 7.9 km/h 19.3 km/h 59% 0.0 mm 350 W/m2
14:31 14.6 °C 6.9 °C 1016.3 hPa Calm   24.1 km/h 60% 0.0 mm 494 W/m2
14:36 14.8 °C 6.9 °C 1015.9 hPa North 4.7 km/h 12.9 km/h 59% 0.0 mm 1146 W/m2
14:41 15.3 °C 6.6 °C 1015.9 hPa NW 14.3 km/h 19.3 km/h 56% 0.0 mm 972 W/m2
14:46 15.4 °C 6.1 °C 1015.9 hPa WNW 17.7 km/h 25.7 km/h 54% 0.0 mm 958 W/m2
14:51 15.4 °C 6.4 °C 1015.9 hPa WSW 6.4 km/h 16.1 km/h 55% 0.0 mm 990 W/m2
14:56 15.4 °C 6.4 °C 1015.9 hPa WNW 4.7 km/h 20.9 km/h 55% 0.0 mm 330 W/m2
15:01 15.5 °C 6.8 °C 1015.9 hPa SSW 4.7 km/h 11.3 km/h 56% 0.0 mm 471 W/m2
15:06 15.8 °C 6.8 °C 1015.9 hPa NE 4.7 km/h 12.9 km/h 55% 0.0 mm 1037 W/m2
15:11 16.1 °C 7.1 °C 1015.9 hPa NW 11.1 km/h 12.9 km/h 55% 0.0 mm 1046 W/m2
15:16 15.7 °C 6.7 °C 1015.6 hPa WNW 4.7 km/h 20.9 km/h 55% 0.0 mm 448 W/m2
15:21 15.9 °C 7.4 °C 1015.6 hPa North 4.7 km/h 14.5 km/h 57% 0.0 mm 911 W/m2
15:26 16.1 °C 6.8 °C 1015.6 hPa NW 6.4 km/h 12.9 km/h 54% 0.0 mm 949 W/m2
15:31 16.4 °C 6.8 °C 1015.2 hPa West 9.7 km/h 17.7 km/h 53% 0.0 mm 942 W/m2
15:36 16.7 °C 6.8 °C 1015.2 hPa NW 14.3 km/h 20.9 km/h 52% 0.0 mm 944 W/m2
15:41 16.4 °C 7.1 °C 1015.6 hPa WSW 11.1 km/h 14.5 km/h 54% 0.0 mm 220 W/m2
15:46 16.2 °C 7.1 °C 1015.6 hPa WSW 3.2 km/h 14.5 km/h 55% 0.0 mm 972 W/m2
15:51 16.3 °C 6.7 °C 1015.6 hPa West 6.4 km/h 11.3 km/h 53% 0.0 mm 246 W/m2
15:56 16.1 °C 6.5 °C 1015.6 hPa WSW 13 km/h 20.9 km/h 53% 0.0 mm 564 W/m2
16:01 16.3 °C 7 °C 1015.2 hPa WNW 3.2 km/h 11.3 km/h 54% 0.0 mm 1034 W/m2
16:06 16.4 °C 6.5 °C 1015.2 hPa WNW 11.1 km/h 19.3 km/h 52% 0.0 mm 320 W/m2
16:11 16 °C 6.4 °C 1015.2 hPa West 9.7 km/h 12.9 km/h 53% 0.0 mm 325 W/m2
16:16 15.8 °C 6 °C 1015.2 hPa NW 7.9 km/h 14.5 km/h 52% 0.0 mm 262 W/m2
16:21 15.6 °C 6.1 °C 1015.2 hPa NW 3.2 km/h 19.3 km/h 53% 0.0 mm 385 W/m2
16:26 15.8 °C 6.2 °C 1015.2 hPa NW 4.7 km/h 12.9 km/h 53% 0.0 mm 459 W/m2
16:31 16.1 °C 6.5 °C 1015.2 hPa WSW 7.9 km/h 19.3 km/h 53% 0.0 mm 195 W/m2
16:36 15.9 °C 6.6 °C 1015.2 hPa NW 4.7 km/h 17.7 km/h 54% 0.0 mm 411 W/m2
16:41 15.9 °C 6.6 °C 1015.2 hPa NNW 4.7 km/h 14.5 km/h 54% 0.0 mm 381 W/m2
16:46 16.1 °C 6.5 °C 1015.2 hPa NNW 4.7 km/h 17.7 km/h 53% 0.0 mm 954 W/m2
16:51 16.2 °C 6.9 °C 1015.2 hPa West 9.7 km/h 14.5 km/h 54% 0.0 mm 287 W/m2
16:56 16.5 °C 7.2 °C 1015.2 hPa WNW 4.7 km/h 11.3 km/h 54% 0.0 mm 888 W/m2
17:01 16.4 °C 6.5 °C 1015.2 hPa WNW 7.9 km/h 11.3 km/h 52% 0.0 mm 265 W/m2
17:06 16.5 °C 6.9 °C 1015.2 hPa WNW 6.4 km/h 12.9 km/h 53% 0.0 mm 411 W/m2
17:11 16.4 °C 6.5 °C 1015.2 hPa West 3.2 km/h 6.4 km/h 52% 0.0 mm 176 W/m2
17:16 16.2 °C 6.6 °C 1015.2 hPa NNW 3.2 km/h 6.4 km/h 53% 0.0 mm 255 W/m2
17:22 16.3 °C 6.4 °C 1015.2 hPa East 3.2 km/h 9.7 km/h 52% 0.0 mm 304 W/m2
17:27 16.3 °C 6.7 °C 1015.2 hPa NW 6.4 km/h 9.7 km/h 53% 0.0 mm 234 W/m2
17:32 16.3 °C 6.7 °C 1015.2 hPa SE 4.7 km/h 6.4 km/h 53% 0.0 mm 555 W/m2
17:37 16.7 °C 6.8 °C 1015.2 hPa North 3.2 km/h 11.3 km/h 52% 0.0 mm 810 W/m2
17:42 16.7 °C 6.8 °C 1015.2 hPa SSW 1.4 km/h 4.8 km/h 52% 0.0 mm 464 W/m2
17:47 16.9 °C 7.3 °C 1015.2 hPa West 3.2 km/h 8 km/h 53% 0.0 mm 686 W/m2
17:52 16.9 °C 7 °C 1014.9 hPa Calm   14.5 km/h 52% 0.0 mm 673 W/m2
17:57 17.1 °C 7.2 °C 1014.9 hPa WSW 4.7 km/h 8 km/h 52% 0.0 mm 626 W/m2
18:02 17.1 °C 6.9 °C 1014.9 hPa NNW 4.7 km/h 8 km/h 51% 0.0 mm 429 W/m2
18:07 16.9 °C 7.3 °C 1014.9 hPa SSW 6.4 km/h 6.4 km/h 53% 0.0 mm 677 W/m2
18:12 16.9 °C 6.7 °C 1014.9 hPa WNW 7.9 km/h 12.9 km/h 51% 0.0 mm 631 W/m2
18:17 17.1 °C 6.9 °C 1014.6 hPa West 4.7 km/h 16.1 km/h 51% 0.0 mm 598 W/m2
18:22 16.9 °C 6.4 °C 1014.6 hPa West 9.7 km/h 14.5 km/h 50% 0.0 mm 113 W/m2
18:27 16.5 °C 6.9 °C 1014.6 hPa West 4.7 km/h 11.3 km/h 53% 0.0 mm 239 W/m2
18:32 16.3 °C 6.4 °C 1014.6 hPa NW 3.2 km/h 8 km/h 52% 0.0 mm 91 W/m2
18:37 16.2 °C 6.3 °C 1014.6 hPa West 4.7 km/h 12.9 km/h 52% 0.0 mm 461 W/m2
18:42 16.4 °C 6.2 °C 1014.6 hPa Calm   6.4 km/h 51% 0.0 mm 396 W/m2
18:47 16.8 °C 6.6 °C 1014.6 hPa SW 4.7 km/h 8 km/h 51% 0.0 mm 352 W/m2
18:52 17.2 °C 6.7 °C 1014.6 hPa West 3.2 km/h 11.3 km/h 50% 0.0 mm 320 W/m2
18:57 17.4 °C 6.9 °C 1014.6 hPa West 6.4 km/h 6.4 km/h 50% 0.0 mm 294 W/m2
19:02 17.4 °C 6.6 °C 1014.6 hPa WNW 3.2 km/h 11.3 km/h 49% 0.0 mm 70 W/m2
19:07 17.2 °C 6.7 °C 1014.6 hPa NW 7.9 km/h 12.9 km/h 50% 0.0 mm 69 W/m2
19:12 16.7 °C 6.8 °C 1014.6 hPa NW 1.4 km/h 4.8 km/h 52% 0.0 mm 91 W/m2
19:17 16.4 °C 6.2 °C 1014.6 hPa WNW 3.2 km/h 9.7 km/h 51% 0.0 mm 346 W/m2
Juneau County Weather
Compliments of Weather Underground - 4 mb